Time,TemperatureF,DewpointF,PressureIn,WindDirection,WindDirectionDegrees,WindSpeedMPH,WindSpeedGustMPH,Humidity,HourlyPrecipIn,Conditions,Clouds,dailyrainin,SoftwareType,DateUTC
2013-03-02 00:03:00,10.4,2.5,30.21,North,0,7.0,8.0,70,0.00,,,0.00,meteohub,2013-03-02 06:03:00,
2013-03-02 00:08:00,10.6,2.7,30.21,North,0,5.0,8.0,70,0.00,,,0.00,meteohub,2013-03-02 06:08:00,
2013-03-02 00:13:00,10.8,2.8,30.21,NNW,338,5.0,7.0,70,0.00,,,0.00,meteohub,2013-03-02 06:13:00,
2013-03-02 00:18:00,10.8,2.8,30.21,NW,315,5.0,7.0,70,0.00,,,0.00,meteohub,2013-03-02 06:18:00,
2013-03-02 00:23:00,10.8,2.8,30.21,North,0,6.0,6.0,70,0.00,,,0.00,meteohub,2013-03-02 06:23:00,
2013-03-02 00:28:00,10.8,2.8,30.21,NNW,338,6.0,6.0,70,0.00,,,0.00,meteohub,2013-03-02 06:28:00,
2013-03-02 00:33:00,10.6,2.5,30.21,NW,315,5.0,6.0,69,0.00,,,0.00,meteohub,2013-03-02 06:33:00,
2013-03-02 00:38:00,10.4,2.3,30.21,North,0,5.0,6.0,69,0.00,,,0.00,meteohub,2013-03-02 06:38:00,
2013-03-02 00:43:00,10.4,2.3,30.21,North,0,6.0,7.0,69,0.00,,,0.00,meteohub,2013-03-02 06:43:00,
2013-03-02 00:48:00,10.4,2.3,30.21,North,0,5.0,7.0,69,0.00,,,0.00,meteohub,2013-03-02 06:48:00,
2013-03-02 00:53:00,10.4,2.3,30.21,North,0,6.0,7.0,69,0.00,,,0.00,meteohub,2013-03-02 06:53:00,
2013-03-02 00:58:00,10.4,2.3,30.21,NW,315,6.0,6.0,69,0.00,,,0.00,meteohub,2013-03-02 06:58:00,
2013-03-02 01:03:00,10.0,0.7,30.21,North,0,6.0,6.0,65,0.00,,,0.00,meteohub,2013-03-02 07:03:00,
2013-03-02 01:09:00,10.0,0.7,30.21,North,0,5.0,7.0,65,0.00,,,0.00,meteohub,2013-03-02 07:09:00,
2013-03-02 01:14:00,10.2,0.9,30.21,North,0,5.0,7.0,65,0.00,,,0.00,meteohub,2013-03-02 07:14:00,
2013-03-02 01:19:00,10.4,2.3,30.21,North,0,6.0,7.0,69,0.00,,,0.00,meteohub,2013-03-02 07:19:00,
2013-03-02 01:24:00,10.4,2.3,30.21,North,0,4.0,6.0,69,0.00,,,0.00,meteohub,2013-03-02 07:24:00,
2013-03-02 01:29:00,10.0,0.7,30.21,North,0,4.0,6.0,65,0.00,,,0.00,meteohub,2013-03-02 07:29:00,
2013-03-02 01:34:00,9.7,0.3,30.20,North,0,3.0,6.0,65,0.00,,,0.00,meteohub,2013-03-02 07:34:00,
2013-03-02 01:39:00,8.8,-0.9,30.20,North,0,2.0,5.0,64,0.00,,,0.00,meteohub,2013-03-02 07:39:00,
2013-03-02 01:44:00,7.9,-1.5,30.20,North,0,2.0,4.0,65,0.00,,,0.00,meteohub,2013-03-02 07:44:00,
2013-03-02 01:49:00,7.5,-2.0,30.20,North,0,2.0,4.0,64,0.00,,,0.00,meteohub,2013-03-02 07:49:00,
2013-03-02 01:54:00,7.5,-2.0,30.20,North,0,2.0,3.0,64,0.00,,,0.00,meteohub,2013-03-02 07:54:00,
2013-03-02 01:59:00,7.2,-2.4,30.20,North,0,2.0,3.0,64,0.00,,,0.00,meteohub,2013-03-02 07:59:00,
2013-03-02 02:04:00,6.8,-2.7,30.20,North,0,2.0,3.0,64,0.00,,,0.00,meteohub,2013-03-02 08:04:00,
2013-03-02 02:09:00,6.6,-2.6,30.20,North,0,2.0,3.0,65,0.00,,,0.00,meteohub,2013-03-02 08:09:00,
2013-03-02 02:15:00,6.6,-2.6,30.20,North,0,2.0,2.0,65,0.00,,,0.00,meteohub,2013-03-02 08:15:00,
2013-03-02 02:20:00,7.0,-2.6,30.20,North,0,3.0,3.0,64,0.00,,,0.00,meteohub,2013-03-02 08:20:00,
2013-03-02 02:25:00,7.5,-2.0,30.21,NW,315,4.0,4.0,64,0.00,,,0.00,meteohub,2013-03-02 08:25:00,
2013-03-02 02:30:00,8.1,-1.3,30.21,NW,315,4.0,5.0,65,0.00,,,0.00,meteohub,2013-03-02 08:30:00,
2013-03-02 02:35:00,8.2,-1.1,30.21,NW,315,4.0,5.0,65,0.00,,,0.00,meteohub,2013-03-02 08:35:00,
2013-03-02 02:40:00,7.7,-2.0,30.21,North,0,4.0,5.0,64,0.00,,,0.00,meteohub,2013-03-02 08:40:00,
2013-03-02 02:45:00,7.2,-2.4,30.20,West,270,4.0,4.0,64,0.00,,,0.00,meteohub,2013-03-02 08:45:00,
2013-03-02 02:50:00,6.8,-2.7,30.20,NW,315,2.0,4.0,64,0.00,,,0.00,meteohub,2013-03-02 08:50:00,
2013-03-02 02:55:00,6.8,-2.7,30.20,NW,315,2.0,4.0,64,0.00,,,0.00,meteohub,2013-03-02 08:55:00,
2013-03-02 03:01:00,6.6,-2.6,30.19,NW,315,2.0,4.0,65,0.00,,,0.00,meteohub,2013-03-02 09:01:00,
2013-03-02 03:06:00,6.8,-2.7,30.20,North,0,2.0,3.0,64,0.00,,,0.00,meteohub,2013-03-02 09:06:00,
2013-03-02 03:11:00,7.3,-2.2,30.19,North,0,2.0,3.0,64,0.00,,,0.00,meteohub,2013-03-02 09:11:00,
2013-03-02 03:16:00,7.3,-2.2,30.19,North,0,2.0,3.0,64,0.00,,,0.00,meteohub,2013-03-02 09:16:00,
2013-03-02 03:21:00,7.0,-2.6,30.19,North,0,2.0,3.0,64,0.00,,,0.00,meteohub,2013-03-02 09:21:00,
2013-03-02 03:26:00,6.8,-2.7,30.19,North,0,1.0,3.0,64,0.00,,,0.00,meteohub,2013-03-02 09:26:00,
2013-03-02 03:31:00,6.4,-3.1,30.19,North,0,2.0,2.0,64,0.00,,,0.00,meteohub,2013-03-02 09:31:00,
2013-03-02 03:36:00,6.3,-3.3,30.19,North,0,2.0,2.0,64,0.00,,,0.00,meteohub,2013-03-02 09:36:00,
2013-03-02 03:41:00,6.6,-2.6,30.19,North,0,2.0,3.0,65,0.00,,,0.00,meteohub,2013-03-02 09:41:00,
2013-03-02 03:46:00,7.3,-2.2,30.20,North,0,4.0,4.0,64,0.00,,,0.00,meteohub,2013-03-02 09:46:00,
2013-03-02 03:51:00,7.7,-2.0,30.20,North,0,4.0,4.0,64,0.00,,,0.00,meteohub,2013-03-02 09:51:00,
2013-03-02 03:57:00,7.7,-2.0,30.20,NW,315,3.0,4.0,64,0.00,,,0.00,meteohub,2013-03-02 09:57:00,
2013-03-02 04:02:00,7.5,-2.0,30.19,North,0,3.0,4.0,64,0.00,,,0.00,meteohub,2013-03-02 10:02:00,
2013-03-02 04:07:00,7.5,-2.0,30.19,North,0,2.0,4.0,64,0.00,,,0.00,meteohub,2013-03-02 10:07:00,
2013-03-02 04:13:00,7.7,-2.0,30.19,North,0,2.0,3.0,64,0.00,,,0.00,meteohub,2013-03-02 10:13:00,
2013-03-02 04:18:00,7.9,-1.8,30.19,North,0,2.0,3.0,64,0.00,,,0.00,meteohub,2013-03-02 10:18:00,
2013-03-02 04:23:00,7.7,-2.0,30.19,North,0,2.0,2.0,64,0.00,,,0.00,meteohub,2013-03-02 10:23:00,
2013-03-02 04:28:00,6.8,-3.1,30.18,North,0,2.0,2.0,63,0.00,,,0.00,meteohub,2013-03-02 10:28:00,
2013-03-02 04:33:00,5.7,-3.8,30.18,NE,45,1.0,2.0,64,0.00,,,0.00,meteohub,2013-03-02 10:33:00,
2013-03-02 04:38:00,4.3,-5.3,30.18,NE,45,2.0,2.0,64,0.00,,,0.00,meteohub,2013-03-02 10:38:00,
2013-03-02 04:44:00,4.1,-5.4,30.19,NE,45,2.0,2.0,64,0.00,,,0.00,meteohub,2013-03-02 10:44:00,
2013-03-02 04:49:00,2.8,-6.5,30.19,North,0,2.0,2.0,64,0.00,,,0.00,meteohub,2013-03-02 10:49:00,
2013-03-02 04:54:00,2.1,-7.2,30.18,North,0,2.0,2.0,64,0.00,,,0.00,meteohub,2013-03-02 10:54:00,
2013-03-02 04:59:00,1.0,-9.6,30.18,North,0,2.0,2.0,60,0.00,,,0.00,meteohub,2013-03-02 10:59:00,
2013-03-02 05:04:00,0.9,-10.1,30.18,North,0,2.0,2.0,59,0.00,,,0.00,meteohub,2013-03-02 11:04:00,
2013-03-02 05:09:00,1.2,-9.4,30.19,North,0,2.0,2.0,60,0.00,,,0.00,meteohub,2013-03-02 11:09:00,
2013-03-02 05:14:00,1.4,-8.0,30.19,North,0,2.0,2.0,64,0.00,,,0.00,meteohub,2013-03-02 11:14:00,
2013-03-02 05:19:00,1.9,-7.4,30.19,North,0,2.0,2.0,64,0.00,,,0.00,meteohub,2013-03-02 11:19:00,
2013-03-02 05:25:00,2.7,-6.7,30.19,North,0,2.0,2.0,64,0.00,,,0.00,meteohub,2013-03-02 11:25:00,
2013-03-02 05:30:00,2.5,-6.9,30.19,North,0,2.0,2.0,64,0.00,,,0.00,meteohub,2013-03-02 11:30:00,
2013-03-02 05:35:00,2.7,-6.7,30.19,North,0,2.0,2.0,64,0.00,,,0.00,meteohub,2013-03-02 11:35:00,
2013-03-02 05:40:00,2.8,-6.5,30.19,North,0,1.0,2.0,64,0.00,,,0.00,meteohub,2013-03-02 11:40:00,
2013-03-02 05:45:00,3.0,-6.3,30.20,North,0,1.0,2.0,64,0.00,,,0.00,meteohub,2013-03-02 11:45:00,
2013-03-02 05:50:00,3.4,-6.3,30.19,North,0,0.0,2.0,63,0.00,,,0.00,meteohub,2013-03-02 11:50:00,
2013-03-02 05:55:00,2.8,-6.5,30.20,North,0,2.0,2.0,64,0.00,,,0.00,meteohub,2013-03-02 11:55:00,
2013-03-02 06:00:00,2.5,-6.9,30.19,North,0,2.0,2.0,64,0.00,,,0.00,meteohub,2013-03-02 12:00:00,
2013-03-02 06:05:00,2.7,-6.7,30.19,North,0,2.0,2.0,64,0.00,,,0.00,meteohub,2013-03-02 12:05:00,
2013-03-02 06:10:00,2.5,-6.9,30.19,North,0,2.0,2.0,64,0.00,,,0.00,meteohub,2013-03-02 12:10:00,
2013-03-02 06:15:00,2.1,-7.6,30.19,NE,45,2.0,2.0,63,0.00,,,0.00,meteohub,2013-03-02 12:15:00,
2013-03-02 06:21:00,1.8,-8.0,30.19,North,0,2.0,2.0,63,0.00,,,0.00,meteohub,2013-03-02 12:21:00,
2013-03-02 06:26:00,1.8,-8.0,30.19,North,0,2.0,2.0,63,0.00,,,0.00,meteohub,2013-03-02 12:26:00,
2013-03-02 06:31:00,1.2,-9.8,30.19,North,0,1.0,2.0,59,0.00,,,0.00,meteohub,2013-03-02 12:31:00,
2013-03-02 06:36:00,-0.2,-11.2,30.19,North,0,1.0,2.0,59,0.00,,,0.00,meteohub,2013-03-02 12:36:00,
2013-03-02 06:41:00,-1.3,-12.1,30.18,NE,45,0.0,2.0,59,0.00,,,0.00,meteohub,2013-03-02 12:41:00,
2013-03-02 06:46:00,-2.0,-12.8,30.18,East,90,2.0,2.0,59,0.01,,,0.01,meteohub,2013-03-02 12:46:00,
2013-03-02 06:51:00,-1.5,-12.3,30.18,East,90,2.0,2.0,59,0.01,,,0.01,meteohub,2013-03-02 12:51:00,
2013-03-02 06:56:00,-0.9,-11.7,30.18,East,90,2.0,2.0,59,0.01,,,0.01,meteohub,2013-03-02 12:56:00,
2013-03-02 07:01:00,-0.9,-11.7,30.18,East,90,2.0,2.0,59,0.01,,,0.01,meteohub,2013-03-02 13:01:00,
2013-03-02 07:06:00,0.1,-11.2,30.19,East,90,1.0,2.0,58,0.01,,,0.01,meteohub,2013-03-02 13:06:00,
2013-03-02 07:11:00,1.4,-8.3,30.18,East,90,0.0,2.0,63,0.01,,,0.01,meteohub,2013-03-02 13:11:00,
2013-03-02 07:17:00,2.1,-7.6,30.18,East,90,0.0,2.0,63,0.01,,,0.01,meteohub,2013-03-02 13:17:00,
2013-03-02 07:22:00,3.0,-6.7,30.18,SE,135,0.0,2.0,63,0.01,,,0.01,meteohub,2013-03-02 13:22:00,
2013-03-02 07:27:00,3.7,-6.0,30.18,SE,135,0.0,0.0,63,0.01,,,0.01,meteohub,2013-03-02 13:27:00,
2013-03-02 07:32:00,4.5,-5.3,30.18,South,180,0.0,0.0,63,0.01,,,0.01,meteohub,2013-03-02 13:32:00,
2013-03-02 07:37:00,5.0,-5.1,30.19,South,180,0.0,0.0,62,0.01,,,0.01,meteohub,2013-03-02 13:37:00,
2013-03-02 07:42:00,5.5,-4.4,30.19,South,180,0.0,0.0,63,0.01,,,0.01,meteohub,2013-03-02 13:42:00,
2013-03-02 07:47:00,6.1,-3.8,30.19,SW,225,0.0,0.0,63,0.00,,,0.01,meteohub,2013-03-02 13:47:00,
2013-03-02 07:52:00,6.6,-3.3,30.19,West,270,0.0,0.0,63,0.00,,,0.01,meteohub,2013-03-02 13:52:00,
2013-03-02 07:57:00,7.0,-3.3,30.19,West,270,0.0,0.0,62,0.00,,,0.01,meteohub,2013-03-02 13:57:00,
2013-03-02 08:02:00,7.5,-2.4,30.19,South,180,0.0,0.0,63,0.00,,,0.01,meteohub,2013-03-02 14:02:00,
2013-03-02 08:07:00,7.9,-2.0,30.19,South,180,0.0,0.0,63,0.00,,,0.01,meteohub,2013-03-02 14:07:00,
2013-03-02 08:12:00,8.6,-1.7,30.19,South,180,0.0,0.0,62,0.00,,,0.01,meteohub,2013-03-02 14:12:00,
2013-03-02 08:18:00,9.7,-0.4,30.19,South,180,0.0,0.0,63,0.00,,,0.01,meteohub,2013-03-02 14:18:00,
2013-03-02 08:23:00,10.8,2.3,30.19,South,180,0.0,0.0,68,0.00,,,0.01,meteohub,2013-03-02 14:23:00,
2013-03-02 08:28:00,11.5,3.0,30.19,South,180,0.0,0.0,68,0.00,,,0.01,meteohub,2013-03-02 14:28:00,
2013-03-02 08:33:00,11.7,3.2,30.19,South,180,0.0,0.0,68,0.00,,,0.01,meteohub,2013-03-02 14:33:00,
2013-03-02 08:38:00,11.8,3.4,30.18,South,180,0.0,0.0,68,0.00,,,0.01,meteohub,2013-03-02 14:38:00,
2013-03-02 08:43:00,11.8,3.4,30.18,South,180,0.0,0.0,68,0.00,,,0.01,meteohub,2013-03-02 14:43:00,
2013-03-02 08:48:00,11.3,2.8,30.18,South,180,0.0,0.0,68,0.00,,,0.01,meteohub,2013-03-02 14:48:00,
2013-03-02 08:53:00,10.9,2.5,30.17,South,180,0.0,0.0,68,0.00,,,0.01,meteohub,2013-03-02 14:53:00,
2013-03-02 08:58:00,11.1,2.7,30.17,South,180,0.0,0.0,68,0.00,,,0.01,meteohub,2013-03-02 14:58:00,
2013-03-02 09:04:00,12.0,3.7,30.17,South,180,0.0,0.0,69,0.00,,,0.01,meteohub,2013-03-02 15:04:00,
2013-03-02 09:09:00,13.1,4.5,30.17,South,180,0.0,0.0,68,0.00,,,0.01,meteohub,2013-03-02 15:09:00,
2013-03-02 09:14:00,13.8,5.5,30.17,SE,135,0.0,0.0,69,0.00,,,0.01,meteohub,2013-03-02 15:14:00,
2013-03-02 09:19:00,14.7,6.1,30.17,SE,135,0.0,0.0,68,0.00,,,0.01,meteohub,2013-03-02 15:19:00,
2013-03-02 09:24:00,14.9,6.3,30.17,South,180,1.0,1.0,68,0.00,,,0.01,meteohub,2013-03-02 15:24:00,
2013-03-02 09:29:00,14.9,6.3,30.17,SE,135,1.0,1.0,68,0.00,,,0.01,meteohub,2013-03-02 15:29:00,
2013-03-02 09:34:00,14.5,5.9,30.17,SE,135,1.0,1.0,68,0.00,,,0.01,meteohub,2013-03-02 15:34:00,
2013-03-02 09:39:00,14.4,5.7,30.17,South,180,0.0,2.0,68,0.00,,,0.01,meteohub,2013-03-02 15:39:00,
2013-03-02 09:44:00,15.4,7.2,30.17,South,180,2.0,2.0,69,0.00,,,0.01,meteohub,2013-03-02 15:44:00,
2013-03-02 09:49:00,15.8,7.2,30.17,SSE,158,2.0,2.0,68,0.00,,,0.01,meteohub,2013-03-02 15:49:00,
2013-03-02 09:54:00,16.3,7.9,30.17,South,180,2.0,2.0,69,0.00,,,0.01,meteohub,2013-03-02 15:54:00,
2013-03-02 09:59:00,17.4,9.0,30.17,SE,135,2.0,2.0,69,0.00,,,0.01,meteohub,2013-03-02 15:59:00,
2013-03-02 10:04:00,17.4,9.0,30.17,SE,135,2.0,2.0,69,0.00,,,0.01,meteohub,2013-03-02 16:04:00,
2013-03-02 10:10:00,17.2,8.8,30.17,SSE,158,2.0,2.0,69,0.00,,,0.01,meteohub,2013-03-02 16:10:00,
2013-03-02 10:15:00,17.8,9.0,30.17,SE,135,2.0,2.0,68,0.00,,,0.01,meteohub,2013-03-02 16:15:00,
2013-03-02 10:20:00,17.8,9.0,30.17,South,180,2.0,2.0,68,0.00,,,0.01,meteohub,2013-03-02 16:20:00,
2013-03-02 10:25:00,18.0,9.1,30.17,South,180,3.0,3.0,68,0.00,,,0.01,meteohub,2013-03-02 16:25:00,
2013-03-02 10:30:00,17.1,8.6,30.17,SSE,158,4.0,4.0,69,0.00,,,0.01,meteohub,2013-03-02 16:30:00,
2013-03-02 10:36:00,16.5,7.9,30.17,SW,225,3.0,4.0,68,0.00,,,0.01,meteohub,2013-03-02 16:36:00,
2013-03-02 10:41:00,16.7,8.2,30.17,SE,135,3.0,4.0,69,0.00,,,0.01,meteohub,2013-03-02 16:41:00,
2013-03-02 10:46:00,17.1,8.6,30.17,SSE,158,4.0,4.0,69,0.00,,,0.01,meteohub,2013-03-02 16:46:00,
2013-03-02 10:51:00,17.2,8.8,30.17,SE,135,3.0,4.0,69,0.00,,,0.01,meteohub,2013-03-02 16:51:00,
2013-03-02 10:56:00,17.1,8.6,30.17,SE,135,4.0,4.0,69,0.00,,,0.01,meteohub,2013-03-02 16:56:00,
2013-03-02 11:01:00,17.2,8.8,30.17,SE,135,4.0,4.0,69,0.00,,,0.01,meteohub,2013-03-02 17:01:00,
2013-03-02 11:07:00,17.6,8.8,30.17,SE,135,4.0,4.0,68,0.00,,,0.01,meteohub,2013-03-02 17:07:00,
2013-03-02 11:12:00,17.2,8.8,30.17,SE,135,7.0,7.0,69,0.00,,,0.01,meteohub,2013-03-02 17:12:00,
2013-03-02 11:17:00,17.2,8.8,30.17,SE,135,6.0,8.0,69,0.00,,,0.01,meteohub,2013-03-02 17:17:00,
2013-03-02 11:22:00,17.4,9.0,30.17,SE,135,8.0,8.0,69,0.00,,,0.01,meteohub,2013-03-02 17:22:00,
2013-03-02 11:27:00,17.2,8.8,30.16,SE,135,8.0,8.0,69,0.00,,,0.01,meteohub,2013-03-02 17:27:00,
2013-03-02 11:32:00,17.2,8.8,30.15,SE,135,9.0,9.0,69,0.00,,,0.01,meteohub,2013-03-02 17:32:00,
2013-03-02 11:37:00,17.2,8.8,30.15,SE,135,9.0,9.0,69,0.00,,,0.01,meteohub,2013-03-02 17:37:00,
2013-03-02 11:43:00,17.4,9.0,30.15,SE,135,11.0,11.0,69,0.00,,,0.01,meteohub,2013-03-02 17:43:00,
2013-03-02 11:48:00,17.8,9.0,30.15,SE,135,9.0,11.0,68,0.00,,,0.01,meteohub,2013-03-02 17:48:00,
2013-03-02 11:53:00,18.1,9.3,30.14,SE,135,9.0,11.0,68,0.00,,,0.01,meteohub,2013-03-02 17:53:00,
2013-03-02 11:58:00,18.7,9.9,30.14,SE,135,8.0,11.0,68,0.00,,,0.01,meteohub,2013-03-02 17:58:00,
2013-03-02 12:03:00,18.9,10.0,30.14,SE,135,9.0,10.0,68,0.00,,,0.01,meteohub,2013-03-02 18:03:00,
2013-03-02 12:08:00,19.4,11.8,30.13,SSE,158,8.0,10.0,72,0.00,,,0.01,meteohub,2013-03-02 18:08:00,
2013-03-02 12:14:00,19.9,12.4,30.14,SE,135,8.0,10.0,72,0.00,,,0.01,meteohub,2013-03-02 18:14:00,
2013-03-02 12:19:00,20.5,12.9,30.13,SE,135,8.0,9.0,72,0.00,,,0.01,meteohub,2013-03-02 18:19:00,
2013-03-02 12:24:00,21.2,13.3,30.14,South,180,8.0,9.0,71,0.00,,,0.01,meteohub,2013-03-02 18:24:00,
2013-03-02 12:29:00,21.7,14.2,30.14,South,180,8.0,9.0,72,0.00,,,0.01,meteohub,2013-03-02 18:29:00,
2013-03-02 12:34:00,21.6,14.0,30.14,South,180,7.0,9.0,72,0.00,,,0.01,meteohub,2013-03-02 18:34:00,
2013-03-02 12:39:00,21.9,14.4,30.14,South,180,5.0,8.0,72,0.00,,,0.01,meteohub,2013-03-02 18:39:00,
2013-03-02 12:44:00,22.6,14.9,30.14,South,180,7.0,8.0,72,0.00,,,0.01,meteohub,2013-03-02 18:44:00,
2013-03-02 12:49:00,23.2,15.3,30.13,SSE,158,6.0,8.0,71,0.00,,,0.01,meteohub,2013-03-02 18:49:00,
2013-03-02 12:55:00,23.0,15.1,30.13,South,180,5.0,7.0,71,0.00,,,0.01,meteohub,2013-03-02 18:55:00,
2013-03-02 13:00:00,23.2,15.3,30.13,South,180,7.0,7.0,71,0.00,,,0.01,meteohub,2013-03-02 19:00:00,
2013-03-02 13:05:00,23.0,15.1,30.12,South,180,8.0,8.0,71,0.00,,,0.01,meteohub,2013-03-02 19:05:00,
2013-03-02 13:10:00,23.2,15.3,30.12,SE,135,6.0,8.0,71,0.00,,,0.01,meteohub,2013-03-02 19:10:00,
2013-03-02 13:15:00,23.2,15.3,30.12,SSE,158,6.0,8.0,71,0.00,,,0.01,meteohub,2013-03-02 19:15:00,
2013-03-02 13:20:00,23.2,15.3,30.11,SE,135,8.0,8.0,71,0.00,,,0.01,meteohub,2013-03-02 19:20:00,
2013-03-02 13:25:00,23.2,15.3,30.11,SE,135,8.0,8.0,71,0.00,,,0.01,meteohub,2013-03-02 19:25:00,
2013-03-02 13:30:00,23.2,14.9,30.10,SE,135,9.0,9.0,70,0.00,,,0.01,meteohub,2013-03-02 19:30:00,
2013-03-02 13:35:00,23.0,14.7,30.10,SE,135,8.0,10.0,70,0.00,,,0.01,meteohub,2013-03-02 19:35:00,
2013-03-02 13:40:00,22.8,14.5,30.10,South,180,9.0,10.0,70,0.00,,,0.01,meteohub,2013-03-02 19:40:00,
2013-03-02 13:46:00,23.0,14.4,30.10,SE,135,9.0,10.0,69,0.00,,,0.01,meteohub,2013-03-02 19:46:00,
2013-03-02 13:51:00,23.2,14.2,30.10,SE,135,7.0,10.0,68,0.00,,,0.01,meteohub,2013-03-02 19:51:00,
2013-03-02 13:56:00,23.5,14.5,30.10,South,180,7.0,9.0,68,0.00,,,0.01,meteohub,2013-03-02 19:56:00,
2013-03-02 14:01:00,23.9,14.9,30.10,SE,135,8.0,9.0,68,0.00,,,0.01,meteohub,2013-03-02 20:01:00,
2013-03-02 14:06:00,23.9,14.5,30.09,SE,135,8.0,9.0,67,0.00,,,0.01,meteohub,2013-03-02 20:06:00,
2013-03-02 14:11:00,23.9,14.2,30.09,SE,135,9.0,10.0,66,0.00,,,0.01,meteohub,2013-03-02 20:11:00,
2013-03-02 14:17:00,24.4,14.0,30.09,SE,135,8.0,10.0,64,0.00,,,0.01,meteohub,2013-03-02 20:17:00,
2013-03-02 14:22:00,24.8,13.6,30.08,SE,135,11.0,11.0,62,0.00,,,0.01,meteohub,2013-03-02 20:22:00,
2013-03-02 14:27:00,25.0,13.5,30.09,SE,135,11.0,11.0,61,0.00,,,0.01,meteohub,2013-03-02 20:27:00,
2013-03-02 14:32:00,25.3,13.5,30.09,SE,135,9.0,11.0,60,0.00,,,0.01,meteohub,2013-03-02 20:32:00,
2013-03-02 14:37:00,25.5,13.1,30.09,SSE,158,8.0,11.0,59,0.00,,,0.01,meteohub,2013-03-02 20:37:00,
2013-03-02 14:42:00,25.7,13.3,30.09,SE,135,10.0,11.0,59,0.00,,,0.01,meteohub,2013-03-02 20:42:00,
2013-03-02 14:47:00,26.2,13.8,30.08,SE,135,8.0,11.0,59,0.00,,,0.01,meteohub,2013-03-02 20:47:00,
2013-03-02 14:52:00,25.7,12.6,30.08,SE,135,9.0,10.0,57,0.00,,,0.01,meteohub,2013-03-02 20:52:00,
2013-03-02 14:57:00,25.7,12.6,30.07,SE,135,9.0,10.0,57,0.00,,,0.01,meteohub,2013-03-02 20:57:00,
2013-03-02 15:02:00,25.7,12.2,30.07,SE,135,9.0,9.0,56,0.00,,,0.01,meteohub,2013-03-02 21:02:00,
2013-03-02 15:07:00,26.2,12.7,30.08,SE,135,9.0,9.0,56,0.00,,,0.01,meteohub,2013-03-02 21:07:00,
2013-03-02 15:12:00,26.8,12.7,30.07,SE,135,10.0,10.0,55,0.00,,,0.01,meteohub,2013-03-02 21:12:00,
2013-03-02 15:17:00,26.8,12.4,30.07,SE,135,10.0,10.0,54,0.00,,,0.01,meteohub,2013-03-02 21:17:00,
2013-03-02 15:23:00,26.6,11.8,30.07,SE,135,11.0,11.0,53,0.00,,,0.01,meteohub,2013-03-02 21:23:00,
2013-03-02 15:28:00,27.3,12.4,30.07,SE,135,10.0,11.0,53,0.00,,,0.01,meteohub,2013-03-02 21:28:00,
2013-03-02 15:33:00,28.8,15.4,30.07,SE,135,9.0,11.0,57,0.00,,,0.01,meteohub,2013-03-02 21:33:00,
2013-03-02 15:38:00,27.0,11.3,30.07,SE,135,8.0,11.0,51,0.00,,,0.01,meteohub,2013-03-02 21:38:00,
2013-03-02 15:43:00,25.7,10.0,30.06,SE,135,9.0,10.0,51,0.00,,,0.01,meteohub,2013-03-02 21:43:00,
2013-03-02 15:48:00,25.3,10.2,30.06,SE,135,9.0,10.0,52,0.00,,,0.01,meteohub,2013-03-02 21:48:00,
2013-03-02 15:53:00,24.8,10.0,30.06,SE,135,10.0,10.0,53,0.00,,,0.01,meteohub,2013-03-02 21:53:00,
2013-03-02 15:58:00,24.8,10.6,30.06,SE,135,8.0,11.0,54,0.00,,,0.01,meteohub,2013-03-02 21:58:00,
2013-03-02 16:03:00,24.6,10.8,30.06,SE,135,12.0,12.0,55,0.00,,,0.01,meteohub,2013-03-02 22:03:00,
2013-03-02 16:09:00,24.6,11.1,30.06,SE,135,11.0,12.0,56,0.00,,,0.01,meteohub,2013-03-02 22:09:00,
2013-03-02 16:14:00,24.4,10.9,30.06,SE,135,12.0,12.0,56,0.00,,,0.01,meteohub,2013-03-02 22:14:00,
2013-03-02 16:19:00,24.1,11.1,30.06,SE,135,13.0,13.0,57,0.00,,,0.01,meteohub,2013-03-02 22:19:00,
2013-03-02 16:24:00,23.9,10.9,30.06,SE,135,11.0,13.0,57,0.00,,,0.01,meteohub,2013-03-02 22:24:00,
2013-03-02 16:29:00,23.7,10.8,30.06,SE,135,10.0,13.0,57,0.00,,,0.01,meteohub,2013-03-02 22:29:00,
2013-03-02 16:34:00,23.5,10.9,30.07,SE,135,11.0,13.0,58,0.00,,,0.01,meteohub,2013-03-02 22:34:00,
2013-03-02 16:39:00,23.5,10.9,30.06,SE,135,10.0,12.0,58,0.00,,,0.01,meteohub,2013-03-02 22:39:00,
2013-03-02 16:44:00,23.5,11.3,30.06,SE,135,10.0,12.0,59,0.00,,,0.01,meteohub,2013-03-02 22:44:00,
2013-03-02 16:50:00,23.4,11.1,30.05,SE,135,10.0,12.0,59,0.00,,,0.01,meteohub,2013-03-02 22:50:00,
2013-03-02 16:55:00,23.2,11.3,30.05,SE,135,10.0,13.0,60,0.00,,,0.01,meteohub,2013-03-02 22:55:00,
2013-03-02 17:00:00,23.0,11.1,30.06,East,90,11.0,13.0,60,0.00,,,0.01,meteohub,2013-03-02 23:00:00,
2013-03-02 17:05:00,22.8,11.3,30.05,SE,135,11.0,13.0,61,0.00,,,0.01,meteohub,2013-03-02 23:05:00,
2013-03-02 17:10:00,22.6,11.3,30.05,SE,135,11.0,12.0,61,0.00,,,0.01,meteohub,2013-03-02 23:10:00,
2013-03-02 17:15:00,22.8,11.3,30.05,SE,135,10.0,12.0,61,0.00,,,0.01,meteohub,2013-03-02 23:15:00,
2013-03-02 17:20:00,22.6,11.3,30.05,SE,135,11.0,12.0,61,0.00,,,0.01,meteohub,2013-03-02 23:20:00,
2013-03-02 17:26:00,22.5,11.1,30.05,SE,135,11.0,11.0,61,0.00,,,0.01,meteohub,2013-03-02 23:26:00,
2013-03-02 17:31:00,22.5,11.1,30.05,SE,135,9.0,11.0,61,0.00,,,0.01,meteohub,2013-03-02 23:31:00,
2013-03-02 17:36:00,22.3,10.9,30.05,SE,135,11.0,11.0,61,0.00,,,0.01,meteohub,2013-03-02 23:36:00,
2013-03-02 17:41:00,22.1,10.8,30.04,SE,135,11.0,11.0,61,0.00,,,0.01,meteohub,2013-03-02 23:41:00,
2013-03-02 17:46:00,22.1,10.8,30.04,SE,135,14.0,14.0,61,0.00,,,0.01,meteohub,2013-03-02 23:46:00,
2013-03-02 17:51:00,21.7,10.4,30.04,SE,135,13.0,14.0,61,0.00,,,0.01,meteohub,2013-03-02 23:51:00,
2013-03-02 17:56:00,21.7,10.4,30.04,SE,135,11.0,15.0,61,0.00,,,0.01,meteohub,2013-03-02 23:56:00,
2013-03-02 18:01:00,21.6,10.6,30.04,SE,135,12.0,15.0,62,0.00,,,0.01,meteohub,2013-03-03 00:01:00,
2013-03-02 18:06:00,21.6,10.6,30.04,SE,135,10.0,15.0,62,0.00,,,0.00,meteohub,2013-03-03 00:06:00,
2013-03-02 18:11:00,21.4,10.4,30.04,SE,135,11.0,14.0,62,0.00,,,0.00,meteohub,2013-03-03 00:11:00,
2013-03-02 18:16:00,21.4,10.4,30.05,SE,135,11.0,14.0,62,0.00,,,0.00,meteohub,2013-03-03 00:16:00,
2013-03-02 18:22:00,21.4,10.4,30.05,SE,135,11.0,12.0,62,0.00,,,0.00,meteohub,2013-03-03 00:22:00,
2013-03-02 18:27:00,21.4,10.4,30.04,SE,135,11.0,12.0,62,0.00,,,0.00,meteohub,2013-03-03 00:27:00,
2013-03-02 18:32:00,21.4,10.8,30.04,SE,135,11.0,11.0,63,0.00,,,0.00,meteohub,2013-03-03 00:32:00,
2013-03-02 18:37:00,21.4,10.8,30.05,SE,135,11.0,13.0,63,0.00,,,0.00,meteohub,2013-03-03 00:37:00,
2013-03-02 18:42:00,21.2,10.6,30.05,SE,135,10.0,14.0,63,0.00,,,0.00,meteohub,2013-03-03 00:42:00,
2013-03-02 18:47:00,21.2,10.6,30.05,SE,135,13.0,15.0,63,0.00,,,0.00,meteohub,2013-03-03 00:47:00,
2013-03-02 18:52:00,21.2,10.6,30.04,SE,135,11.0,15.0,63,0.00,,,0.00,meteohub,2013-03-03 00:52:00,
2013-03-02 18:57:00,21.2,10.9,30.05,SE,135,11.0,15.0,64,0.00,,,0.00,meteohub,2013-03-03 00:57:00,
2013-03-02 19:02:00,21.2,10.9,30.04,SE,135,13.0,13.0,64,0.00,,,0.00,meteohub,2013-03-03 01:02:00,
2013-03-02 19:08:00,21.2,10.9,30.05,SE,135,13.0,13.0,64,0.00,,,0.00,meteohub,2013-03-03 01:08:00,
2013-03-02 19:13:00,21.2,10.9,30.05,SE,135,12.0,14.0,64,0.00,,,0.00,meteohub,2013-03-03 01:13:00,
2013-03-02 19:18:00,21.2,10.9,30.05,SE,135,12.0,14.0,64,0.00,,,0.00,meteohub,2013-03-03 01:18:00,
2013-03-02 19:23:00,21.2,10.9,30.05,SE,135,11.0,14.0,64,0.00,,,0.00,meteohub,2013-03-03 01:23:00,
2013-03-02 19:28:00,21.2,10.9,30.05,SE,135,11.0,13.0,64,0.00,,,0.00,meteohub,2013-03-03 01:28:00,
2013-03-02 19:33:00,21.2,10.9,30.04,SE,135,13.0,13.0,64,0.00,,,0.00,meteohub,2013-03-03 01:33:00,
2013-03-02 19:38:00,21.2,10.9,30.04,SE,135,14.0,14.0,64,0.00,,,0.00,meteohub,2013-03-03 01:38:00,
2013-03-02 19:43:00,21.2,10.9,30.04,SE,135,13.0,15.0,64,0.00,,,0.00,meteohub,2013-03-03 01:43:00,
2013-03-02 19:49:00,21.2,10.9,30.04,SE,135,15.0,15.0,64,0.00,,,0.00,meteohub,2013-03-03 01:49:00,
2013-03-02 19:54:00,21.2,10.9,30.03,SE,135,13.0,15.0,64,0.00,,,0.00,meteohub,2013-03-03 01:54:00,
2013-03-02 19:59:00,21.4,11.1,30.04,SE,135,11.0,15.0,64,0.00,,,0.00,meteohub,2013-03-03 01:59:00,
2013-03-02 20:04:00,21.4,11.1,30.04,SE,135,12.0,15.0,64,0.00,,,0.00,meteohub,2013-03-03 02:04:00,
2013-03-02 20:09:00,21.4,11.1,30.04,SE,135,12.0,13.0,64,0.00,,,0.00,meteohub,2013-03-03 02:09:00,
2013-03-02 20:14:00,21.4,11.1,30.04,East,90,11.0,13.0,64,0.00,,,0.00,meteohub,2013-03-03 02:14:00,
2013-03-02 20:19:00,21.4,11.1,30.04,SE,135,12.0,13.0,64,0.00,,,0.00,meteohub,2013-03-03 02:19:00,
2013-03-02 20:24:00,21.4,11.1,30.04,SE,135,13.0,13.0,64,0.00,,,0.00,meteohub,2013-03-03 02:24:00,
2013-03-02 20:29:00,21.4,11.5,30.04,SE,135,13.0,13.0,65,0.00,,,0.00,meteohub,2013-03-03 02:29:00,
2013-03-02 20:35:00,21.4,11.5,30.03,SE,135,11.0,13.0,65,0.00,,,0.00,meteohub,2013-03-03 02:35:00,
2013-03-02 20:40:00,21.4,11.5,30.04,SE,135,13.0,14.0,65,0.00,,,0.00,meteohub,2013-03-03 02:40:00,
2013-03-02 20:45:00,21.4,11.5,30.04,SE,135,14.0,15.0,65,0.00,,,0.00,meteohub,2013-03-03 02:45:00,
2013-03-02 20:50:00,21.6,11.7,30.03,SE,135,12.0,15.0,65,0.00,,,0.00,meteohub,2013-03-03 02:50:00,
2013-03-02 20:55:00,21.6,11.7,30.03,SE,135,14.0,16.0,65,0.00,,,0.00,meteohub,2013-03-03 02:55:00,
2013-03-02 21:00:00,21.6,11.7,30.03,SE,135,12.0,16.0,65,0.00,,,0.00,meteohub,2013-03-03 03:00:00,
2013-03-02 21:05:00,21.6,11.7,30.03,SE,135,12.0,16.0,65,0.00,,,0.00,meteohub,2013-03-03 03:05:00,
2013-03-02 21:10:00,21.7,11.8,30.03,SE,135,13.0,15.0,65,0.00,,,0.00,meteohub,2013-03-03 03:10:00,
2013-03-02 21:15:00,21.7,11.8,30.02,SE,135,15.0,15.0,65,0.00,,,0.00,meteohub,2013-03-03 03:15:00,
2013-03-02 21:21:00,21.9,12.0,30.02,SE,135,15.0,16.0,65,0.00,,,0.00,meteohub,2013-03-03 03:21:00,
2013-03-02 21:26:00,21.9,12.0,30.02,SE,135,15.0,17.0,65,0.00,,,0.00,meteohub,2013-03-03 03:26:00,
2013-03-02 21:31:00,22.1,12.2,30.03,SE,135,15.0,17.0,65,0.00,,,0.00,meteohub,2013-03-03 03:31:00,
2013-03-02 21:36:00,22.1,12.2,30.02,SE,135,13.0,17.0,65,0.00,,,0.00,meteohub,2013-03-03 03:36:00,
2013-03-02 21:41:00,22.1,12.2,30.03,SE,135,11.0,15.0,65,0.00,,,0.00,meteohub,2013-03-03 03:41:00,
2013-03-02 21:46:00,22.1,11.8,30.02,SE,135,13.0,15.0,64,0.00,,,0.00,meteohub,2013-03-03 03:46:00,
2013-03-02 21:51:00,22.3,12.0,30.02,SE,135,14.0,15.0,64,0.00,,,0.00,meteohub,2013-03-03 03:51:00,
2013-03-02 21:57:00,22.1,11.8,30.01,SE,135,12.0,15.0,64,0.00,,,0.00,meteohub,2013-03-03 03:57:00,
2013-03-02 22:02:00,22.1,11.8,30.01,SE,135,15.0,15.0,64,0.00,,,0.00,meteohub,2013-03-03 04:02:00,
2013-03-02 22:07:00,22.3,12.0,30.01,SE,135,14.0,16.0,64,0.00,,,0.00,meteohub,2013-03-03 04:07:00,
2013-03-02 22:12:00,22.3,12.0,30.01,SE,135,15.0,16.0,64,0.00,,,0.00,meteohub,2013-03-03 04:12:00,
2013-03-02 22:17:00,22.3,12.0,30.00,SE,135,15.0,16.0,64,0.00,,,0.00,meteohub,2013-03-03 04:17:00,
2013-03-02 22:22:00,22.1,11.8,30.00,SE,135,13.0,17.0,64,0.00,,,0.00,meteohub,2013-03-03 04:22:00,
2013-03-02 22:28:00,22.1,11.8,30.00,SE,135,13.0,17.0,64,0.00,,,0.00,meteohub,2013-03-03 04:28:00,
2013-03-02 22:33:00,22.1,12.2,30.00,SE,135,14.0,17.0,65,0.00,,,0.00,meteohub,2013-03-03 04:33:00,
2013-03-02 22:38:00,22.1,12.2,30.01,SE,135,12.0,15.0,65,0.00,,,0.00,meteohub,2013-03-03 04:38:00,
2013-03-02 22:43:00,22.1,12.2,30.00,SE,135,14.0,15.0,65,0.00,,,0.00,meteohub,2013-03-03 04:43:00,
2013-03-02 22:48:00,22.1,12.2,30.00,SE,135,15.0,15.0,65,0.00,,,0.00,meteohub,2013-03-03 04:48:00,
2013-03-02 22:53:00,22.1,12.2,29.99,SE,135,15.0,15.0,65,0.00,,,0.00,meteohub,2013-03-03 04:53:00,
2013-03-02 22:58:00,22.3,12.4,30.00,SE,135,13.0,15.0,65,0.00,,,0.00,meteohub,2013-03-03 04:58:00,
2013-03-02 23:00:00,22.3,12.4,30.00,SE,135,15.0,15.0,65,0.00,,,0.00,meteohub,2013-03-03 05:00:00,
2013-03-02 23:01:00,22.3,12.4,29.99,SE,135,12.0,16.0,65,0.00,,,0.00,meteohub,2013-03-03 05:01:00,
2013-03-02 23:02:00,22.3,12.4,29.99,SE,135,14.0,16.0,65,0.00,,,0.00,meteohub,2013-03-03 05:02:00,
2013-03-02 23:07:00,22.3,12.4,29.99,SE,135,15.0,16.0,65,0.00,,,0.00,meteohub,2013-03-03 05:07:00,
2013-03-02 23:12:00,22.3,12.4,29.99,SE,135,16.0,16.0,65,0.00,,,0.00,meteohub,2013-03-03 05:12:00,
2013-03-02 23:17:00,22.1,12.2,29.99,SE,135,15.0,17.0,65,0.00,,,0.00,meteohub,2013-03-03 05:17:00,
2013-03-02 23:22:00,22.1,12.2,29.99,SE,135,15.0,17.0,65,0.00,,,0.00,meteohub,2013-03-03 05:22:00,
2013-03-02 23:27:00,22.3,12.7,29.99,SE,135,13.0,17.0,66,0.00,,,0.00,meteohub,2013-03-03 05:27:00,
2013-03-02 23:32:00,22.3,12.7,29.98,SE,135,15.0,17.0,66,0.00,,,0.00,meteohub,2013-03-03 05:32:00,
2013-03-02 23:37:00,22.3,12.7,29.99,SE,135,13.0,15.0,66,0.00,,,0.00,meteohub,2013-03-03 05:37:00,
2013-03-02 23:43:00,22.5,12.7,29.99,SE,135,14.0,17.0,66,0.00,,,0.00,meteohub,2013-03-03 05:43:00,
2013-03-02 23:48:00,22.3,12.7,29.99,SE,135,15.0,17.0,66,0.00,,,0.00,meteohub,2013-03-03 05:48:00,
2013-03-02 23:53:00,22.3,12.7,29.98,SE,135,15.0,17.0,66,0.00,,,0.00,meteohub,2013-03-03 05:53:00,
2013-03-02 23:58:00,22.3,12.7,29.98,SE,135,15.0,17.0,66,0.00,,,0.00,meteohub,2013-03-03 05:58:00,